Time,TemperatureF,DewpointF,PressureIn,WindDirection,WindDirectionDegrees,WindSpeedMPH,WindSpeedGustMPH,Humidity,HourlyPrecipIn,Conditions,Clouds,dailyrainin,SoftwareType,DateUTC
2013-04-24 00:01:00,70.4,62.5,30.09,ESE,102,0.0,5.0,76,0.00,,,0.00,WeatherCatV1.15B25,2013-04-24 04:01:00,
2013-04-24 00:06:00,70.2,62.3,30.09,East,90,4.0,8.0,76,0.00,,,0.00,WeatherCatV1.15B25,2013-04-24 04:06:00,
2013-04-24 00:11:00,70.1,62.5,30.09,ESE,113,5.0,7.0,77,0.00,,,0.00,WeatherCatV1.15B25,2013-04-24 04:11:00,
2013-04-24 00:16:00,69.9,62.3,30.09,ENE,63,5.0,6.0,77,0.00,,,0.00,WeatherCatV1.15B25,2013-04-24 04:16:00,
2013-04-24 00:21:00,69.7,62.2,30.09,East,82,4.0,5.0,77,0.00,,,0.00,WeatherCatV1.15B25,2013-04-24 04:21:00,
2013-04-24 00:26:00,69.5,62.3,30.09,East,79,2.0,6.0,78,0.00,,,0.00,WeatherCatV1.15B25,2013-04-24 04:26:00,
2013-04-24 00:31:00,69.3,62.5,30.09,ENE,69,4.0,5.0,79,0.00,,,0.00,WeatherCatV1.15B25,2013-04-24 04:31:00,
2013-04-24 00:36:00,69.1,62.3,30.09,East,100,1.0,7.0,79,0.00,,,0.00,WeatherCatV1.15B25,2013-04-24 04:36:00,
2013-04-24 00:41:00,68.9,62.1,30.09,East,80,4.0,9.0,79,0.00,,,0.00,WeatherCatV1.15B25,2013-04-24 04:41:00,
2013-04-24 00:46:00,68.8,62.4,30.09,East,79,1.0,7.0,80,0.00,,,0.00,WeatherCatV1.15B25,2013-04-24 04:46:00,
2013-04-24 00:51:00,68.7,62.3,30.09,ENE,69,2.0,8.0,80,0.00,,,0.00,WeatherCatV1.15B25,2013-04-24 04:51:00,
2013-04-24 00:56:00,68.5,62.1,30.09,NE,51,1.0,5.0,80,0.00,,,0.00,WeatherCatV1.15B25,2013-04-24 04:56:00,
2013-04-24 01:01:00,68.4,62.3,30.09,East,96,0.0,9.0,81,0.00,,,0.00,WeatherCatV1.15B25,2013-04-24 05:01:00,
2013-04-24 01:06:00,68.3,62.2,30.09,East,100,5.0,6.0,81,0.00,,,0.00,WeatherCatV1.15B25,2013-04-24 05:06:00,
2013-04-24 01:11:00,68.1,62.0,30.09,ESE,106,4.0,6.0,81,0.00,,,0.00,WeatherCatV1.15B25,2013-04-24 05:11:00,
2013-04-24 01:16:00,67.9,62.2,30.09,ESE,120,1.0,6.0,82,0.00,,,0.00,WeatherCatV1.15B25,2013-04-24 05:16:00,
2013-04-24 01:21:00,67.8,62.1,30.09,East,99,6.0,6.0,82,0.00,,,0.00,WeatherCatV1.15B25,2013-04-24 05:21:00,
2013-04-24 01:26:00,67.6,61.9,30.09,East,87,4.0,7.0,82,0.00,,,0.00,WeatherCatV1.15B25,2013-04-24 05:26:00,
2013-04-24 01:31:00,67.5,62.1,30.09,ESE,114,0.0,5.0,83,0.00,,,0.00,WeatherCatV1.15B25,2013-04-24 05:31:00,
2013-04-24 01:36:00,67.3,62.0,30.09,East,88,0.0,3.0,83,0.00,,,0.00,WeatherCatV1.15B25,2013-04-24 05:36:00,
2013-04-24 01:41:00,67.1,61.8,30.08,East,92,0.0,5.0,83,0.00,,,0.00,WeatherCatV1.15B25,2013-04-24 05:41:00,
2013-04-24 01:46:00,66.9,61.9,30.08,ENE,78,0.0,5.0,84,0.00,,,0.00,WeatherCatV1.15B25,2013-04-24 05:46:00,
2013-04-24 01:50:00,66.8,61.8,30.08,East,82,1.0,3.0,84,0.00,,,0.00,WeatherCatV1.15B25,2013-04-24 05:50:00,
2013-04-24 01:55:00,66.6,61.9,30.08,ESE,115,0.0,2.0,85,0.00,,,0.00,WeatherCatV1.15B25,2013-04-24 05:55:00,
2013-04-24 01:58:00,66.5,61.8,30.08,NE,56,1.0,6.0,85,0.00,,,0.00,WeatherCatV1.15B25,2013-04-24 05:58:00,
2013-04-24 02:03:00,66.3,61.6,30.08,East,80,2.0,3.0,85,0.00,,,0.00,WeatherCatV1.15B25,2013-04-24 06:03:00,
2013-04-24 02:08:00,66.1,61.5,30.08,East,79,1.0,3.0,85,0.00,,,0.00,WeatherCatV1.15B25,2013-04-24 06:08:00,
2013-04-24 02:13:00,65.9,61.6,30.08,East,92,0.0,1.0,86,0.00,,,0.00,WeatherCatV1.15B25,2013-04-24 06:13:00,
2013-04-24 02:18:00,65.8,61.5,30.08,ESE,111,1.0,5.0,86,0.00,,,0.00,WeatherCatV1.15B25,2013-04-24 06:18:00,
2013-04-24 02:23:00,65.7,61.7,30.08,East,101,4.0,6.0,87,0.00,,,0.00,WeatherCatV1.15B25,2013-04-24 06:23:00,
2013-04-24 02:28:00,65.6,61.6,30.08,East,85,1.0,2.0,87,0.00,,,0.00,WeatherCatV1.15B25,2013-04-24 06:28:00,
2013-04-24 02:33:00,65.5,61.5,30.08,East,90,0.0,2.0,87,0.00,,,0.00,WeatherCatV1.15B25,2013-04-24 06:33:00,
2013-04-24 02:38:00,65.4,61.4,30.07,East,88,1.0,2.0,87,0.00,,,0.00,WeatherCatV1.15B25,2013-04-24 06:38:00,
2013-04-24 02:43:00,65.3,61.6,30.07,East,85,1.0,4.0,88,0.00,,,0.00,WeatherCatV1.15B25,2013-04-24 06:43:00,
2013-04-24 02:48:00,65.2,61.5,30.07,East,94,2.0,5.0,88,0.00,,,0.00,WeatherCatV1.15B25,2013-04-24 06:48:00,
2013-04-24 02:53:00,65.1,61.5,30.07,ENE,59,0.0,6.0,88,0.00,,,0.00,WeatherCatV1.15B25,2013-04-24 06:53:00,
2013-04-24 02:58:00,65.0,61.4,30.07,East,82,2.0,9.0,88,0.00,,,0.00,WeatherCatV1.15B25,2013-04-24 06:58:00,
2013-04-24 03:03:00,65.0,61.4,30.07,East,80,4.0,6.0,88,0.00,,,0.00,WeatherCatV1.15B25,2013-04-24 07:03:00,
2013-04-24 03:08:00,64.9,61.3,30.07,East,92,0.0,2.0,88,0.00,,,0.00,WeatherCatV1.15B25,2013-04-24 07:08:00,
2013-04-24 03:13:00,64.9,61.3,30.07,East,92,1.0,4.0,88,0.00,,,0.00,WeatherCatV1.15B25,2013-04-24 07:13:00,
2013-04-24 03:18:00,64.8,61.2,30.07,East,82,3.0,5.0,88,0.00,,,0.00,WeatherCatV1.15B25,2013-04-24 07:18:00,
2013-04-24 03:23:00,64.8,61.5,30.07,East,101,1.0,5.0,89,0.00,,,0.00,WeatherCatV1.15B25,2013-04-24 07:23:00,
2013-04-24 03:28:00,64.7,61.4,30.07,East,98,1.0,4.0,89,0.00,,,0.00,WeatherCatV1.15B25,2013-04-24 07:28:00,
2013-04-24 03:33:00,64.5,61.2,30.06,East,85,2.0,6.0,89,0.00,,,0.00,WeatherCatV1.15B25,2013-04-24 07:33:00,
2013-04-24 03:38:00,64.4,61.1,30.06,East,90,4.0,4.0,89,0.00,,,0.00,WeatherCatV1.15B25,2013-04-24 07:38:00,
2013-04-24 03:43:00,64.3,61.0,30.07,ENE,64,1.0,2.0,89,0.00,,,0.00,WeatherCatV1.15B25,2013-04-24 07:43:00,
2013-04-24 03:48:00,64.2,61.2,30.07,ENE,69,0.0,4.0,90,0.00,,,0.00,WeatherCatV1.15B25,2013-04-24 07:48:00,
2013-04-24 03:53:00,64.1,61.1,30.07,East,85,4.0,4.0,90,0.00,,,0.00,WeatherCatV1.15B25,2013-04-24 07:53:00,
2013-04-24 03:58:00,64.0,61.0,30.07,East,80,2.0,2.0,90,0.00,,,0.00,WeatherCatV1.15B25,2013-04-24 07:58:00,
2013-04-24 04:03:00,63.9,60.9,30.07,ESE,104,2.0,5.0,90,0.00,,,0.00,WeatherCatV1.15B25,2013-04-24 08:03:00,
2013-04-24 04:08:00,63.8,60.8,30.07,East,92,0.0,2.0,90,0.00,,,0.00,WeatherCatV1.15B25,2013-04-24 08:08:00,
2013-04-24 04:13:00,63.6,60.9,30.07,East,87,1.0,3.0,91,0.00,,,0.00,WeatherCatV1.15B25,2013-04-24 08:13:00,
2013-04-24 04:18:00,63.5,60.8,30.07,East,99,0.0,2.0,91,0.00,,,0.00,WeatherCatV1.15B25,2013-04-24 08:18:00,
2013-04-24 04:23:00,63.5,60.8,30.07,ENE,76,0.0,1.0,91,0.00,,,0.00,WeatherCatV1.15B25,2013-04-24 08:23:00,
2013-04-24 04:28:00,63.4,61.0,30.07,East,86,0.0,4.0,92,0.00,,,0.00,WeatherCatV1.15B25,2013-04-24 08:28:00,
2013-04-24 04:32:00,63.4,61.0,30.07,ESE,104,0.0,5.0,92,0.00,,,0.00,WeatherCatV1.15B25,2013-04-24 08:32:00,
2013-04-24 04:37:00,63.4,61.0,30.07,East,80,2.0,3.0,92,0.00,,,0.00,WeatherCatV1.15B25,2013-04-24 08:37:00,
2013-04-24 04:42:00,63.3,60.9,30.07,East,98,1.0,4.0,92,0.00,,,0.00,WeatherCatV1.15B25,2013-04-24 08:42:00,
2013-04-24 04:47:00,63.3,60.9,30.07,East,80,0.0,4.0,92,0.00,,,0.00,WeatherCatV1.15B25,2013-04-24 08:47:00,
2013-04-24 04:52:00,63.2,61.1,30.07,East,82,1.0,2.0,93,0.00,,,0.00,WeatherCatV1.15B25,2013-04-24 08:52:00,
2013-04-24 04:57:00,63.1,61.0,30.07,ENE,67,0.0,2.0,93,0.00,,,0.00,WeatherCatV1.15B25,2013-04-24 08:57:00,
2013-04-24 05:02:00,63.1,61.0,30.07,ENE,68,0.0,4.0,93,0.00,,,0.00,WeatherCatV1.15B25,2013-04-24 09:02:00,
2013-04-24 05:07:00,63.0,60.9,30.07,East,86,0.0,4.0,93,0.00,,,0.00,WeatherCatV1.15B25,2013-04-24 09:07:00,
2013-04-24 05:12:00,63.0,60.9,30.07,East,80,0.0,1.0,93,0.00,,,0.00,WeatherCatV1.15B25,2013-04-24 09:12:00,
2013-04-24 05:17:00,62.9,60.8,30.07,NE,53,0.0,5.0,93,0.00,,,0.00,WeatherCatV1.15B25,2013-04-24 09:17:00,
2013-04-24 05:22:00,62.9,60.8,30.07,ENE,68,0.0,4.0,93,0.00,,,0.00,WeatherCatV1.15B25,2013-04-24 09:22:00,
2013-04-24 05:27:00,62.8,60.7,30.07,ESE,109,0.0,1.0,93,0.00,,,0.00,WeatherCatV1.15B25,2013-04-24 09:27:00,
2013-04-24 05:32:00,62.8,60.7,30.07,East,95,1.0,6.0,93,0.00,,,0.00,WeatherCatV1.15B25,2013-04-24 09:32:00,
2013-04-24 05:37:00,62.8,60.7,30.08,East,95,0.0,4.0,93,0.00,,,0.00,WeatherCatV1.15B25,2013-04-24 09:37:00,
2013-04-24 05:42:00,62.7,60.6,30.08,East,89,3.0,4.0,93,0.00,,,0.00,WeatherCatV1.15B25,2013-04-24 09:42:00,
2013-04-24 05:47:00,62.7,60.6,30.08,East,81,1.0,2.0,93,0.00,,,0.00,WeatherCatV1.15B25,2013-04-24 09:47:00,
2013-04-24 05:52:00,62.6,60.5,30.08,ENE,62,1.0,3.0,93,0.00,,,0.00,WeatherCatV1.15B25,2013-04-24 09:52:00,
2013-04-24 05:57:00,62.6,60.5,30.08,ESE,103,2.0,2.0,93,0.00,,,0.00,WeatherCatV1.15B25,2013-04-24 09:57:00,
2013-04-24 06:01:00,62.6,60.5,30.08,NE,54,0.0,6.0,93,0.00,,,0.00,WeatherCatV1.15B25,2013-04-24 10:01:00,
2013-04-24 06:06:00,62.6,60.5,30.08,East,95,0.0,1.0,93,0.00,,,0.00,WeatherCatV1.15B25,2013-04-24 10:06:00,
2013-04-24 06:11:00,62.6,60.5,30.08,ENE,64,3.0,5.0,93,0.00,,,0.00,WeatherCatV1.15B25,2013-04-24 10:11:00,
2013-04-24 06:16:00,62.6,60.5,30.08,East,79,3.0,6.0,93,0.00,,,0.00,WeatherCatV1.15B25,2013-04-24 10:16:00,
2013-04-24 06:21:00,62.6,60.5,30.08,ENE,74,2.0,4.0,93,0.00,,,0.00,WeatherCatV1.15B25,2013-04-24 10:21:00,
2013-04-24 06:26:00,62.6,60.5,30.08,East,98,2.0,2.0,93,0.00,,,0.00,WeatherCatV1.15B25,2013-04-24 10:26:00,
2013-04-24 06:31:00,62.5,60.4,30.08,NE,42,2.0,5.0,93,0.00,,,0.00,WeatherCatV1.15B25,2013-04-24 10:31:00,
2013-04-24 06:36:00,62.5,60.4,30.08,ESE,111,0.0,2.0,93,0.00,,,0.00,WeatherCatV1.15B25,2013-04-24 10:36:00,
2013-04-24 06:41:00,62.5,60.4,30.09,NE,51,5.0,5.0,93,0.00,,,0.00,WeatherCatV1.15B25,2013-04-24 10:41:00,
2013-04-24 06:46:00,62.4,60.3,30.09,ENE,63,1.0,3.0,93,0.00,,,0.00,WeatherCatV1.15B25,2013-04-24 10:46:00,
2013-04-24 06:51:00,62.3,60.2,30.09,ENE,78,0.0,4.0,93,0.00,,,0.00,WeatherCatV1.15B25,2013-04-24 10:51:00,
2013-04-24 06:56:00,62.3,60.2,30.09,East,86,0.0,2.0,93,0.00,,,0.00,WeatherCatV1.15B25,2013-04-24 10:56:00,
2013-04-24 07:01:00,62.3,60.2,30.09,ENE,71,0.0,4.0,93,0.00,,,0.00,WeatherCatV1.15B25,2013-04-24 11:01:00,
2013-04-24 07:06:00,62.3,60.2,30.09,ENE,68,0.0,5.0,93,0.00,,,0.00,WeatherCatV1.15B25,2013-04-24 11:06:00,
2013-04-24 07:11:00,62.3,60.2,30.09,East,80,2.0,4.0,93,0.00,,,0.00,WeatherCatV1.15B25,2013-04-24 11:11:00,
2013-04-24 07:16:00,62.3,60.2,30.09,East,82,0.0,2.0,93,0.00,,,0.00,WeatherCatV1.15B25,2013-04-24 11:16:00,
2013-04-24 07:21:00,62.3,60.5,30.10,East,80,0.0,3.0,94,0.00,,,0.00,WeatherCatV1.15B25,2013-04-24 11:21:00,
2013-04-24 07:26:00,62.4,60.3,30.10,East,99,0.0,1.0,93,0.00,,,0.00,WeatherCatV1.15B25,2013-04-24 11:26:00,
2013-04-24 07:31:00,62.5,60.7,30.10,East,96,1.0,5.0,94,0.00,,,0.00,WeatherCatV1.15B25,2013-04-24 11:31:00,
2013-04-24 07:36:00,62.7,60.9,30.10,ESE,111,2.0,2.0,94,0.00,,,0.00,WeatherCatV1.15B25,2013-04-24 11:36:00,
2013-04-24 07:41:00,63.1,61.3,30.10,ENE,78,2.0,6.0,94,0.00,,,0.00,WeatherCatV1.15B25,2013-04-24 11:41:00,
2013-04-24 07:46:00,63.6,61.5,30.11,East,88,1.0,4.0,93,0.00,,,0.00,WeatherCatV1.15B25,2013-04-24 11:46:00,
2013-04-24 07:51:00,64.1,61.7,30.11,ENE,66,2.0,2.0,92,0.00,,,0.00,WeatherCatV1.15B25,2013-04-24 11:51:00,
2013-04-24 07:56:00,64.7,62.0,30.11,ENE,77,0.0,5.0,91,0.00,,,0.00,WeatherCatV1.15B25,2013-04-24 11:56:00,
2013-04-24 08:01:00,65.3,62.3,30.11,ENE,77,0.0,6.0,90,0.00,,,0.00,WeatherCatV1.15B25,2013-04-24 12:01:00,
2013-04-24 08:06:00,66.0,62.7,30.11,East,90,2.0,8.0,89,0.00,,,0.00,WeatherCatV1.15B25,2013-04-24 12:06:00,
2013-04-24 08:11:00,66.6,62.6,30.11,ESE,104,6.0,6.0,87,0.00,,,0.00,WeatherCatV1.15B25,2013-04-24 12:11:00,
2013-04-24 08:16:00,66.9,62.6,30.11,ESE,116,5.0,5.0,86,0.00,,,0.00,WeatherCatV1.15B25,2013-04-24 12:16:00,
2013-04-24 08:21:00,67.3,62.6,30.11,NNE,24,4.0,5.0,85,0.00,,,0.00,WeatherCatV1.15B25,2013-04-24 12:21:00,
2013-04-24 08:26:00,67.9,62.9,30.12,ESE,121,1.0,4.0,84,0.00,,,0.00,WeatherCatV1.15B25,2013-04-24 12:26:00,
2013-04-24 08:31:00,68.4,63.0,30.12,East,89,2.0,6.0,83,0.00,,,0.00,WeatherCatV1.15B25,2013-04-24 12:31:00,
2013-04-24 08:36:00,68.9,63.2,30.12,ENE,71,5.0,6.0,82,0.00,,,0.00,WeatherCatV1.15B25,2013-04-24 12:36:00,
2013-04-24 08:41:00,69.3,63.2,30.12,ESE,109,2.0,5.0,81,0.00,,,0.00,WeatherCatV1.15B25,2013-04-24 12:41:00,
2013-04-24 08:46:00,69.8,63.3,30.12,ESE,105,0.0,5.0,80,0.00,,,0.00,WeatherCatV1.15B25,2013-04-24 12:46:00,
2013-04-24 08:51:00,70.4,63.9,30.12,East,86,0.0,7.0,80,0.00,,,0.00,WeatherCatV1.15B25,2013-04-24 12:51:00,
2013-04-24 08:56:00,70.8,63.6,30.12,East,80,2.0,4.0,78,0.00,,,0.00,WeatherCatV1.15B25,2013-04-24 12:56:00,
2013-04-24 09:01:00,71.2,63.6,30.12,ESE,111,4.0,6.0,77,0.00,,,0.00,WeatherCatV1.15B25,2013-04-24 13:01:00,
2013-04-24 09:06:00,71.5,63.5,30.12,East,101,3.0,6.0,76,0.00,,,0.00,WeatherCatV1.15B25,2013-04-24 13:06:00,
2013-04-24 09:11:00,72.1,63.7,30.12,ENE,75,0.0,5.0,75,0.00,,,0.00,WeatherCatV1.15B25,2013-04-24 13:11:00,
2013-04-24 09:16:00,72.6,63.8,30.12,ESE,112,2.0,5.0,74,0.00,,,0.00,WeatherCatV1.15B25,2013-04-24 13:16:00,
2013-04-24 09:21:00,73.0,63.8,30.13,ESE,119,4.0,5.0,73,0.00,,,0.00,WeatherCatV1.15B25,2013-04-24 13:21:00,
2013-04-24 09:27:00,73.5,64.3,30.13,East,100,1.0,3.0,73,0.00,,,0.00,WeatherCatV1.15B25,2013-04-24 13:27:00,
2013-04-24 09:32:00,74.1,64.1,30.13,East,97,1.0,6.0,71,0.00,,,0.00,WeatherCatV1.15B25,2013-04-24 13:32:00,
2013-04-24 09:37:00,74.6,64.6,30.13,ESE,113,1.0,5.0,71,0.00,,,0.00,WeatherCatV1.15B25,2013-04-24 13:37:00,
2013-04-24 09:42:00,74.9,64.0,30.13,SSE,147,0.0,5.0,69,0.00,,,0.00,WeatherCatV1.15B25,2013-04-24 13:42:00,
2013-04-24 09:47:00,75.3,64.0,30.13,ENE,76,1.0,6.0,68,0.00,,,0.00,WeatherCatV1.15B25,2013-04-24 13:47:00,
2013-04-24 09:52:00,75.9,64.1,30.13,ENE,65,2.0,7.0,67,0.00,,,0.00,WeatherCatV1.15B25,2013-04-24 13:52:00,
2013-04-24 09:57:00,76.3,64.5,30.13,East,101,3.0,6.0,67,0.00,,,0.00,WeatherCatV1.15B25,2013-04-24 13:57:00,
2013-04-24 10:02:00,76.8,64.6,30.13,SE,126,1.0,2.0,66,0.00,,,0.00,WeatherCatV1.15B25,2013-04-24 14:02:00,
2013-04-24 10:07:00,77.2,64.1,30.13,East,86,5.0,9.0,64,0.00,,,0.00,WeatherCatV1.15B25,2013-04-24 14:07:00,
2013-04-24 10:12:00,77.2,64.1,30.13,SE,126,7.0,7.0,64,0.00,,,0.00,WeatherCatV1.15B25,2013-04-24 14:12:00,
2013-04-24 10:17:00,77.2,64.1,30.13,ESE,119,4.0,7.0,64,0.00,,,0.00,WeatherCatV1.15B25,2013-04-24 14:17:00,
2013-04-24 10:22:00,77.3,64.2,30.13,ENE,60,5.0,6.0,64,0.00,,,0.00,WeatherCatV1.15B25,2013-04-24 14:22:00,
2013-04-24 10:27:00,77.3,64.2,30.13,SE,131,2.0,9.0,64,0.00,,,0.00,WeatherCatV1.15B25,2013-04-24 14:27:00,
2013-04-24 10:32:00,77.4,63.8,30.13,ESE,123,4.0,8.0,63,0.00,,,0.00,WeatherCatV1.15B25,2013-04-24 14:32:00,
2013-04-24 10:37:00,77.6,64.0,30.13,East,80,6.0,8.0,63,0.00,,,0.00,WeatherCatV1.15B25,2013-04-24 14:37:00,
2013-04-24 10:42:00,78.1,64.0,30.13,East,86,2.0,6.0,62,0.00,,,0.00,WeatherCatV1.15B25,2013-04-24 14:42:00,
2013-04-24 10:47:00,78.6,64.0,30.13,ESE,112,4.0,7.0,61,0.00,,,0.00,WeatherCatV1.15B25,2013-04-24 14:47:00,
2013-04-24 10:52:00,78.8,63.2,30.13,ESE,122,0.0,8.0,59,0.00,,,0.00,WeatherCatV1.15B25,2013-04-24 14:52:00,
2013-04-24 10:57:00,79.0,63.4,30.13,SSE,165,3.0,9.0,59,0.00,,,0.00,WeatherCatV1.15B25,2013-04-24 14:57:00,
2013-04-24 11:02:00,79.2,62.6,30.13,ENE,71,5.0,9.0,57,0.00,,,0.00,WeatherCatV1.15B25,2013-04-24 15:02:00,
2013-04-24 11:09:00,79.6,63.0,30.13,ESE,123,1.0,7.0,57,0.00,,,0.00,WeatherCatV1.15B25,2013-04-24 15:09:00,
2013-04-24 11:14:00,79.9,63.3,30.13,South,170,0.0,2.0,57,0.00,,,0.00,WeatherCatV1.15B25,2013-04-24 15:14:00,
2013-04-24 11:19:00,80.3,61.0,30.13,East,101,2.0,6.0,52,0.00,,,0.00,WeatherCatV1.15B25,2013-04-24 15:19:00,
2013-04-24 11:24:00,80.8,62.6,30.13,SE,130,0.0,6.0,54,0.00,,,0.00,WeatherCatV1.15B25,2013-04-24 15:24:00,
2013-04-24 11:29:00,81.3,62.5,30.13,ENE,78,1.0,8.0,53,0.00,,,0.00,WeatherCatV1.15B25,2013-04-24 15:29:00,
2013-04-24 11:34:00,81.2,61.9,30.13,East,95,7.0,7.0,52,0.00,,,0.00,WeatherCatV1.15B25,2013-04-24 15:34:00,
2013-04-24 11:39:00,81.0,63.8,30.13,ESE,114,1.0,5.0,56,0.00,,,0.00,WeatherCatV1.15B25,2013-04-24 15:39:00,
2013-04-24 11:44:00,81.4,61.5,30.13,NE,54,2.0,6.0,51,0.00,,,0.00,WeatherCatV1.15B25,2013-04-24 15:44:00,
2013-04-24 11:49:00,81.6,62.2,30.12,SE,138,0.0,4.0,52,0.00,,,0.00,WeatherCatV1.15B25,2013-04-24 15:49:00,
2013-04-24 11:54:00,82.2,63.3,30.12,SSE,156,0.0,1.0,53,0.00,,,0.00,WeatherCatV1.15B25,2013-04-24 15:54:00,
2013-04-24 11:59:00,82.9,61.7,30.12,ESE,115,4.0,6.0,49,0.00,,,0.00,WeatherCatV1.15B25,2013-04-24 15:59:00,
2013-04-24 12:04:00,82.7,59.8,30.12,NE,53,2.0,7.0,46,0.00,,,0.00,WeatherCatV1.15B25,2013-04-24 16:04:00,
2013-04-24 12:09:00,82.5,60.8,30.11,ESE,105,2.0,6.0,48,0.00,,,0.00,WeatherCatV1.15B25,2013-04-24 16:09:00,
2013-04-24 12:14:00,82.5,60.8,30.12,South,173,1.0,7.0,48,0.00,,,0.00,WeatherCatV1.15B25,2013-04-24 16:14:00,
2013-04-24 12:19:00,82.7,61.0,30.12,East,99,2.0,2.0,48,0.00,,,0.00,WeatherCatV1.15B25,2013-04-24 16:19:00,
2013-04-24 12:24:00,83.1,61.3,30.11,East,101,1.0,3.0,48,0.00,,,0.00,WeatherCatV1.15B25,2013-04-24 16:24:00,
2013-04-24 12:29:00,83.4,61.0,30.11,ESE,116,1.0,8.0,47,0.00,,,0.00,WeatherCatV1.15B25,2013-04-24 16:29:00,
2013-04-24 12:34:00,84.0,61.0,30.11,ESE,116,0.0,5.0,46,0.00,,,0.00,WeatherCatV1.15B25,2013-04-24 16:34:00,
2013-04-24 12:39:00,84.3,62.4,30.11,SSW,197,3.0,4.0,48,0.00,,,0.00,WeatherCatV1.15B25,2013-04-24 16:39:00,
2013-04-24 12:44:00,84.5,62.0,30.10,ESE,108,0.0,4.0,47,0.00,,,0.00,WeatherCatV1.15B25,2013-04-24 16:44:00,
2013-04-24 12:49:00,84.2,61.8,30.10,ENE,74,4.0,7.0,47,0.00,,,0.00,WeatherCatV1.15B25,2013-04-24 16:49:00,
2013-04-24 12:54:00,84.4,62.5,30.10,East,97,1.0,2.0,48,0.00,,,0.00,WeatherCatV1.15B25,2013-04-24 16:54:00,
2013-04-24 12:59:00,84.5,61.4,30.10,SE,132,2.0,5.0,46,0.00,,,0.00,WeatherCatV1.15B25,2013-04-24 16:59:00,
2013-04-24 13:04:00,84.5,63.2,30.10,SSW,196,0.0,0.0,49,0.00,,,0.00,WeatherCatV1.15B25,2013-04-24 17:04:00,
2013-04-24 13:09:00,84.8,61.1,30.10,SSE,158,0.0,1.0,45,0.00,,,0.00,WeatherCatV1.15B25,2013-04-24 17:09:00,
2013-04-24 13:14:00,85.2,62.0,30.10,NNW,340,4.0,6.0,46,0.00,,,0.00,WeatherCatV1.15B25,2013-04-24 17:14:00,
2013-04-24 13:19:00,84.9,61.2,30.10,NE,51,1.0,2.0,45,0.00,,,0.00,WeatherCatV1.15B25,2013-04-24 17:19:00,
2013-04-24 13:24:00,84.4,62.5,30.10,East,100,1.0,2.0,48,0.00,,,0.00,WeatherCatV1.15B25,2013-04-24 17:24:00,
2013-04-24 13:29:00,85.0,61.2,30.10,ENE,57,1.0,6.0,45,0.00,,,0.00,WeatherCatV1.15B25,2013-04-24 17:29:00,
2013-04-24 13:34:00,85.2,59.5,30.10,ESE,122,1.0,3.0,42,0.00,,,0.00,WeatherCatV1.15B25,2013-04-24 17:34:00,
2013-04-24 13:39:00,85.6,61.2,30.10,SE,131,1.0,2.0,44,0.00,,,0.00,WeatherCatV1.15B25,2013-04-24 17:39:00,
2013-04-24 13:44:00,85.8,60.7,30.09,South,175,3.0,4.0,43,0.00,,,0.00,WeatherCatV1.15B25,2013-04-24 17:44:00,
2013-04-24 13:49:00,86.4,66.7,30.09,WNW,291,2.0,6.0,52,0.00,,,0.00,WeatherCatV1.15B25,2013-04-24 17:49:00,
2013-04-24 13:54:00,86.5,66.8,30.09,West,278,2.0,7.0,52,0.00,,,0.00,WeatherCatV1.15B25,2013-04-24 17:54:00,
2013-04-24 13:59:00,86.2,67.6,30.09,WSW,242,2.0,2.0,54,0.00,,,0.00,WeatherCatV1.15B25,2013-04-24 17:59:00,
2013-04-24 14:04:00,86.1,67.5,30.10,West,281,5.0,9.0,54,0.00,,,0.00,WeatherCatV1.15B25,2013-04-24 18:04:00,
2013-04-24 14:09:00,85.6,67.5,30.09,South,186,4.0,5.0,55,0.00,,,0.00,WeatherCatV1.15B25,2013-04-24 18:09:00,
2013-04-24 14:14:00,85.3,68.3,30.09,NW,304,4.0,6.0,57,0.00,,,0.00,WeatherCatV1.15B25,2013-04-24 18:14:00,
2013-04-24 14:19:00,84.9,67.4,30.09,West,279,5.0,7.0,56,0.00,,,0.00,WeatherCatV1.15B25,2013-04-24 18:19:00,
2013-04-24 14:24:00,84.7,68.3,30.09,West,269,7.0,8.0,58,0.00,,,0.00,WeatherCatV1.15B25,2013-04-24 18:24:00,
2013-04-24 14:29:00,84.6,66.6,30.09,SSW,195,3.0,5.0,55,0.00,,,0.00,WeatherCatV1.15B25,2013-04-24 18:29:00,
2013-04-24 14:34:00,85.0,67.5,30.10,WSW,254,1.0,5.0,56,0.00,,,0.00,WeatherCatV1.15B25,2013-04-24 18:34:00,
2013-04-24 14:39:00,85.1,68.1,30.09,West,263,1.0,5.0,57,0.00,,,0.00,WeatherCatV1.15B25,2013-04-24 18:39:00,
2013-04-24 14:44:00,85.3,69.3,30.09,West,267,4.0,6.0,59,0.00,,,0.00,WeatherCatV1.15B25,2013-04-24 18:44:00,
2013-04-24 14:49:00,85.4,67.4,30.09,WSW,241,1.0,5.0,55,0.00,,,0.00,WeatherCatV1.15B25,2013-04-24 18:49:00,
2013-04-24 14:54:00,85.1,68.1,30.09,West,259,1.0,4.0,57,0.00,,,0.00,WeatherCatV1.15B25,2013-04-24 18:54:00,
2013-04-24 14:59:00,85.1,68.6,30.09,WSW,257,2.0,7.0,58,0.00,,,0.00,WeatherCatV1.15B25,2013-04-24 18:59:00,
2013-04-24 15:04:00,85.2,68.2,30.09,WNW,287,4.0,7.0,57,0.00,,,0.00,WeatherCatV1.15B25,2013-04-24 19:04:00,
2013-04-24 15:09:00,85.1,67.1,30.08,West,276,5.0,5.0,55,0.00,,,0.00,WeatherCatV1.15B25,2013-04-24 19:09:00,
2013-04-24 15:14:00,84.9,67.9,30.08,WNW,282,0.0,6.0,57,0.00,,,0.00,WeatherCatV1.15B25,2013-04-24 19:14:00,
2013-04-24 15:19:00,84.9,67.4,30.08,SW,229,8.0,10.0,56,0.00,,,0.00,WeatherCatV1.15B25,2013-04-24 19:19:00,
2013-04-24 15:24:00,84.8,68.3,30.08,WNW,296,5.0,8.0,58,0.00,,,0.00,WeatherCatV1.15B25,2013-04-24 19:24:00,
2013-04-24 15:29:00,84.5,69.1,30.08,West,279,3.0,5.0,60,0.00,,,0.00,WeatherCatV1.15B25,2013-04-24 19:29:00,
2013-04-24 15:34:00,84.5,68.1,30.08,West,279,2.0,6.0,58,0.00,,,0.00,WeatherCatV1.15B25,2013-04-24 19:34:00,
2013-04-24 15:39:00,84.3,67.9,30.08,WSW,248,6.0,7.0,58,0.00,,,0.00,WeatherCatV1.15B25,2013-04-24 19:39:00,
2013-04-24 15:44:00,84.0,67.1,30.08,SSW,198,4.0,7.0,57,0.00,,,0.00,WeatherCatV1.15B25,2013-04-24 19:44:00,
2013-04-24 15:49:00,83.7,67.3,30.08,NW,313,2.0,9.0,58,0.00,,,0.00,WeatherCatV1.15B25,2013-04-24 19:49:00,
2013-04-24 15:54:00,83.6,67.2,30.08,WNW,298,6.0,8.0,58,0.00,,,0.00,WeatherCatV1.15B25,2013-04-24 19:54:00,
2013-04-24 15:59:00,83.5,68.1,30.07,WSW,240,5.0,8.0,60,0.00,,,0.00,WeatherCatV1.15B25,2013-04-24 19:59:00,
2013-04-24 16:04:00,83.4,67.5,30.07,NW,315,9.0,10.0,59,0.00,,,0.00,WeatherCatV1.15B25,2013-04-24 20:04:00,
2013-04-24 16:09:00,83.3,67.4,30.08,WNW,292,5.0,11.0,59,0.00,,,0.00,WeatherCatV1.15B25,2013-04-24 20:09:00,
2013-04-24 16:14:00,83.0,67.2,30.07,West,280,9.0,11.0,59,0.00,,,0.00,WeatherCatV1.15B25,2013-04-24 20:14:00,
2013-04-24 16:19:00,82.9,68.0,30.07,WNW,300,4.0,13.0,61,0.00,,,0.00,WeatherCatV1.15B25,2013-04-24 20:19:00,
2013-04-24 16:24:00,82.9,67.6,30.07,West,269,5.0,5.0,60,0.00,,,0.00,WeatherCatV1.15B25,2013-04-24 20:24:00,
2013-04-24 16:29:00,83.1,68.2,30.08,WNW,284,6.0,10.0,61,0.00,,,0.00,WeatherCatV1.15B25,2013-04-24 20:29:00,
2013-04-24 16:34:00,82.8,67.9,30.07,WNW,285,5.0,7.0,61,0.00,,,0.00,WeatherCatV1.15B25,2013-04-24 20:34:00,
2013-04-24 16:39:00,82.5,68.1,30.07,NW,304,2.0,6.0,62,0.00,,,0.00,WeatherCatV1.15B25,2013-04-24 20:39:00,
2013-04-24 16:44:00,82.5,68.6,30.07,West,268,6.0,6.0,63,0.00,,,0.00,WeatherCatV1.15B25,2013-04-24 20:44:00,
2013-04-24 16:49:00,82.4,68.0,30.07,WSW,242,1.0,7.0,62,0.00,,,0.00,WeatherCatV1.15B25,2013-04-24 20:49:00,
2013-04-24 16:54:00,82.3,68.4,30.07,SW,234,1.0,8.0,63,0.00,,,0.00,WeatherCatV1.15B25,2013-04-24 20:54:00,
2013-04-24 16:59:00,82.2,67.9,30.07,SW,234,2.0,8.0,62,0.00,,,0.00,WeatherCatV1.15B25,2013-04-24 20:59:00,
2013-04-24 17:04:00,82.4,68.5,30.07,West,275,5.0,9.0,63,0.00,,,0.00,WeatherCatV1.15B25,2013-04-24 21:04:00,
2013-04-24 17:09:00,82.3,67.9,30.07,West,263,8.0,8.0,62,0.00,,,0.00,WeatherCatV1.15B25,2013-04-24 21:09:00,
2013-04-24 17:14:00,82.0,68.1,30.07,WNW,286,9.0,12.0,63,0.00,,,0.00,WeatherCatV1.15B25,2013-04-24 21:14:00,
2013-04-24 17:19:00,81.9,67.6,30.07,NW,306,6.0,7.0,62,0.00,,,0.00,WeatherCatV1.15B25,2013-04-24 21:19:00,
2013-04-24 17:24:00,81.9,67.6,30.07,West,271,4.0,12.0,62,0.00,,,0.00,WeatherCatV1.15B25,2013-04-24 21:24:00,
2013-04-24 17:29:00,81.8,68.4,30.07,SW,216,5.0,7.0,64,0.00,,,0.00,WeatherCatV1.15B25,2013-04-24 21:29:00,
2013-04-24 17:34:00,81.8,68.4,30.07,WNW,296,4.0,7.0,64,0.00,,,0.00,WeatherCatV1.15B25,2013-04-24 21:34:00,
2013-04-24 17:39:00,81.9,68.5,30.07,West,273,1.0,6.0,64,0.00,,,0.00,WeatherCatV1.15B25,2013-04-24 21:39:00,
2013-04-24 17:44:00,81.9,68.5,30.07,WNW,284,7.0,8.0,64,0.00,,,0.00,WeatherCatV1.15B25,2013-04-24 21:44:00,
2013-04-24 17:49:00,81.8,68.9,30.07,West,265,2.0,10.0,65,0.00,,,0.00,WeatherCatV1.15B25,2013-04-24 21:49:00,
2013-04-24 17:54:00,81.7,68.8,30.07,West,267,6.0,8.0,65,0.00,,,0.00,WeatherCatV1.15B25,2013-04-24 21:54:00,
2013-04-24 17:59:00,81.5,69.0,30.07,WNW,285,2.0,6.0,66,0.00,,,0.00,WeatherCatV1.15B25,2013-04-24 21:59:00,
2013-04-24 18:04:00,81.2,68.7,30.07,SW,233,6.0,6.0,66,0.00,,,0.00,WeatherCatV1.15B25,2013-04-24 22:04:00,
2013-04-24 18:09:00,81.0,68.5,30.07,WNW,288,5.0,7.0,66,0.00,,,0.00,WeatherCatV1.15B25,2013-04-24 22:09:00,
2013-04-24 18:14:00,80.7,68.3,30.07,WNW,292,5.0,8.0,66,0.00,,,0.00,WeatherCatV1.15B25,2013-04-24 22:14:00,
2013-04-24 18:19:00,80.5,68.5,30.07,WNW,296,3.0,8.0,67,0.00,,,0.00,WeatherCatV1.15B25,2013-04-24 22:19:00,
2013-04-24 18:24:00,80.3,68.3,30.07,West,265,1.0,10.0,67,0.00,,,0.00,WeatherCatV1.15B25,2013-04-24 22:24:00,
2013-04-24 18:30:00,80.1,67.7,30.07,NW,311,5.0,5.0,66,0.00,,,0.00,WeatherCatV1.15B25,2013-04-24 22:30:00,
2013-04-24 18:35:00,80.0,66.7,30.07,WNW,284,7.0,9.0,64,0.00,,,0.00,WeatherCatV1.15B25,2013-04-24 22:35:00,
2013-04-24 18:40:00,80.0,66.7,30.07,WSW,257,2.0,6.0,64,0.00,,,0.00,WeatherCatV1.15B25,2013-04-24 22:40:00,
2013-04-24 18:45:00,79.9,67.1,30.07,West,264,3.0,7.0,65,0.00,,,0.00,WeatherCatV1.15B25,2013-04-24 22:45:00,
2013-04-24 18:50:00,79.7,66.9,30.07,NW,313,5.0,7.0,65,0.00,,,0.00,WeatherCatV1.15B25,2013-04-24 22:50:00,
2013-04-24 18:55:00,79.3,66.9,30.07,West,273,5.0,6.0,66,0.00,,,0.00,WeatherCatV1.15B25,2013-04-24 22:55:00,
2013-04-24 19:00:00,79.0,67.1,30.07,WNW,284,5.0,8.0,67,0.00,,,0.00,WeatherCatV1.15B25,2013-04-24 23:00:00,
2013-04-24 19:05:00,78.7,67.2,30.07,WNW,299,5.0,7.0,68,0.00,,,0.00,WeatherCatV1.15B25,2013-04-24 23:05:00,
2013-04-24 19:10:00,78.4,66.5,30.08,NNW,330,8.0,9.0,67,0.00,,,0.00,WeatherCatV1.15B25,2013-04-24 23:10:00,
2013-04-24 19:15:00,78.1,66.2,30.07,WNW,296,5.0,7.0,67,0.00,,,0.00,WeatherCatV1.15B25,2013-04-24 23:15:00,
2013-04-24 19:20:00,77.7,66.3,30.08,West,269,6.0,12.0,68,0.00,,,0.00,WeatherCatV1.15B25,2013-04-24 23:20:00,
2013-04-24 19:25:00,77.3,66.7,30.08,NNW,336,7.0,9.0,70,0.00,,,0.00,WeatherCatV1.15B25,2013-04-24 23:25:00,
2013-04-24 19:30:00,77.0,66.9,30.08,WNW,300,4.0,7.0,71,0.00,,,0.00,WeatherCatV1.15B25,2013-04-24 23:30:00,
2013-04-24 19:35:00,76.7,66.6,30.08,NW,325,1.0,7.0,71,0.00,,,0.00,WeatherCatV1.15B25,2013-04-24 23:35:00,
2013-04-24 19:40:00,76.5,67.2,30.08,NW,318,5.0,6.0,73,0.00,,,0.00,WeatherCatV1.15B25,2013-04-24 23:40:00,
2013-04-24 19:45:00,76.2,66.9,30.08,WNW,289,6.0,8.0,73,0.00,,,0.00,WeatherCatV1.15B25,2013-04-24 23:45:00,
2013-04-24 19:50:00,76.0,66.7,30.08,NW,313,6.0,9.0,73,0.00,,,0.00,WeatherCatV1.15B25,2013-04-24 23:50:00,
2013-04-24 19:55:00,75.7,66.8,30.08,NW,309,3.0,6.0,74,0.00,,,0.00,WeatherCatV1.15B25,2013-04-24 23:55:00,
2013-04-24 20:00:00,75.4,66.9,30.08,WNW,300,5.0,5.0,75,0.00,,,0.00,WeatherCatV1.15B25,2013-04-25 00:00:00,
2013-04-24 20:05:00,75.2,67.1,30.09,WNW,294,4.0,7.0,76,0.00,,,0.00,WeatherCatV1.15B25,2013-04-25 00:05:00,
2013-04-24 20:10:00,75.0,66.9,30.09,WNW,301,2.0,7.0,76,0.00,,,0.00,WeatherCatV1.15B25,2013-04-25 00:10:00,
2013-04-24 20:15:00,74.9,66.8,30.09,NW,319,4.0,5.0,76,0.00,,,0.00,WeatherCatV1.15B25,2013-04-25 00:15:00,
2013-04-24 20:20:00,74.7,67.0,30.09,WNW,288,2.0,5.0,77,0.00,,,0.00,WeatherCatV1.15B25,2013-04-25 00:20:00,
2013-04-24 20:25:00,74.6,67.3,30.09,WNW,300,4.0,6.0,78,0.00,,,0.00,WeatherCatV1.15B25,2013-04-25 00:25:00,
2013-04-24 20:30:00,74.5,67.2,30.09,NW,313,5.0,7.0,78,0.00,,,0.00,WeatherCatV1.15B25,2013-04-25 00:30:00,
2013-04-24 20:35:00,74.3,67.0,30.09,NW,325,0.0,8.0,78,0.00,,,0.00,WeatherCatV1.15B25,2013-04-25 00:35:00,
2013-04-24 20:40:00,74.2,67.3,30.10,North,355,0.0,1.0,79,0.00,,,0.00,WeatherCatV1.15B25,2013-04-25 00:40:00,
2013-04-24 20:45:00,74.1,67.2,30.10,WNW,298,1.0,4.0,79,0.00,,,0.00,WeatherCatV1.15B25,2013-04-25 00:45:00,
2013-04-24 20:50:00,74.0,67.1,30.10,NW,304,4.0,6.0,79,0.00,,,0.00,WeatherCatV1.15B25,2013-04-25 00:50:00,
2013-04-24 20:55:00,73.9,67.3,30.10,NNW,344,2.0,2.0,80,0.00,,,0.00,WeatherCatV1.15B25,2013-04-25 00:55:00,
2013-04-24 21:00:00,73.8,67.2,30.10,WNW,297,2.0,4.0,80,0.00,,,0.00,WeatherCatV1.15B25,2013-04-25 01:00:00,
2013-04-24 21:05:00,73.7,67.1,30.10,WNW,300,0.0,2.0,80,0.00,,,0.00,WeatherCatV1.15B25,2013-04-25 01:05:00,
2013-04-24 21:10:00,73.6,67.0,30.10,NW,309,0.0,0.0,80,0.00,,,0.00,WeatherCatV1.15B25,2013-04-25 01:10:00,
2013-04-24 21:15:00,73.5,67.3,30.11,NW,309,0.0,0.0,81,0.00,,,0.00,WeatherCatV1.15B25,2013-04-25 01:15:00,
2013-04-24 21:20:00,73.5,67.3,30.11,WNW,303,0.0,1.0,81,0.00,,,0.00,WeatherCatV1.15B25,2013-04-25 01:20:00,
2013-04-24 21:25:00,73.4,67.2,30.11,WNW,303,0.0,2.0,81,0.00,,,0.00,WeatherCatV1.15B25,2013-04-25 01:25:00,
2013-04-24 21:30:00,73.3,67.1,30.11,WNW,303,1.0,1.0,81,0.00,,,0.00,WeatherCatV1.15B25,2013-04-25 01:30:00,
2013-04-24 21:35:00,73.2,67.0,30.11,WNW,303,0.0,1.0,81,0.00,,,0.00,WeatherCatV1.15B25,2013-04-25 01:35:00,
2013-04-24 21:40:00,73.1,66.9,30.12,WNW,303,0.0,2.0,81,0.00,,,0.00,WeatherCatV1.15B25,2013-04-25 01:40:00,
2013-04-24 21:45:00,73.0,66.5,30.12,WNW,303,1.0,2.0,80,0.00,,,0.00,WeatherCatV1.15B25,2013-04-25 01:45:00,
2013-04-24 21:50:00,73.0,66.5,30.12,WNW,303,2.0,2.0,80,0.00,,,0.00,WeatherCatV1.15B25,2013-04-25 01:50:00,
2013-04-24 21:55:00,72.9,66.4,30.12,WNW,303,1.0,1.0,80,0.00,,,0.00,WeatherCatV1.15B25,2013-04-25 01:55:00,
2013-04-24 22:00:00,72.8,65.9,30.12,WNW,303,0.0,2.0,79,0.00,,,0.00,WeatherCatV1.15B25,2013-04-25 02:00:00,
2013-04-24 22:05:00,72.8,65.9,30.12,NW,323,0.0,4.0,79,0.00,,,0.00,WeatherCatV1.15B25,2013-04-25 02:05:00,
2013-04-24 22:10:00,72.8,65.5,30.12,NW,323,1.0,4.0,78,0.00,,,0.00,WeatherCatV1.15B25,2013-04-25 02:10:00,
2013-04-24 22:15:00,72.7,65.4,30.12,NW,322,0.0,3.0,78,0.00,,,0.00,WeatherCatV1.15B25,2013-04-25 02:15:00,
2013-04-24 22:20:00,72.7,65.4,30.12,NNW,340,2.0,5.0,78,0.00,,,0.00,WeatherCatV1.15B25,2013-04-25 02:20:00,
2013-04-24 22:25:00,72.7,65.4,30.12,NNW,331,0.0,0.0,78,0.00,,,0.00,WeatherCatV1.15B25,2013-04-25 02:25:00,
2013-04-24 22:30:00,72.8,65.9,30.12,NNW,345,0.0,0.0,79,0.00,,,0.00,WeatherCatV1.15B25,2013-04-25 02:30:00,
2013-04-24 22:35:00,72.7,65.8,30.12,NNW,345,0.0,0.0,79,0.00,,,0.00,WeatherCatV1.15B25,2013-04-25 02:35:00,
2013-04-24 22:40:00,72.6,65.7,30.12,NNW,345,0.0,0.0,79,0.00,,,0.00,WeatherCatV1.15B25,2013-04-25 02:40:00,
2013-04-24 22:45:00,72.5,65.6,30.12,NNW,345,0.0,0.0,79,0.00,,,0.00,WeatherCatV1.15B25,2013-04-25 02:45:00,
2013-04-24 22:50:00,72.4,65.5,30.12,NNW,340,0.0,1.0,79,0.00,,,0.00,WeatherCatV1.15B25,2013-04-25 02:50:00,
2013-04-24 22:55:00,72.3,65.4,30.12,North,355,0.0,1.0,79,0.00,,,0.00,WeatherCatV1.15B25,2013-04-25 02:55:00,
2013-04-24 23:00:00,72.3,65.4,30.12,North,355,0.0,0.0,79,0.00,,,0.00,WeatherCatV1.15B25,2013-04-25 03:00:00,
2013-04-24 23:05:00,72.2,65.7,30.12,North,355,0.0,0.0,80,0.00,,,0.00,WeatherCatV1.15B25,2013-04-25 03:05:00,
2013-04-24 23:10:00,71.9,65.4,30.12,ENE,57,4.0,5.0,80,0.00,,,0.00,WeatherCatV1.15B25,2013-04-25 03:10:00,
2013-04-24 23:15:00,71.7,65.5,30.12,ENE,71,1.0,3.0,81,0.00,,,0.00,WeatherCatV1.15B25,2013-04-25 03:15:00,
2013-04-24 23:20:00,71.7,65.9,30.12,ENE,62,0.0,2.0,82,0.00,,,0.00,WeatherCatV1.15B25,2013-04-25 03:20:00,
2013-04-24 23:25:00,71.7,65.9,30.12,ENE,77,3.0,4.0,82,0.00,,,0.00,WeatherCatV1.15B25,2013-04-25 03:25:00,
2013-04-24 23:30:00,71.6,66.2,30.12,NE,39,0.0,2.0,83,0.00,,,0.00,WeatherCatV1.15B25,2013-04-25 03:30:00,
2013-04-24 23:35:00,71.5,66.4,30.12,NE,48,0.0,1.0,84,0.00,,,0.00,WeatherCatV1.15B25,2013-04-25 03:35:00,
2013-04-24 23:40:00,71.5,66.4,30.12,ENE,69,1.0,2.0,84,0.00,,,0.00,WeatherCatV1.15B25,2013-04-25 03:40:00,
2013-04-24 23:45:00,71.4,66.3,30.12,ENE,69,0.0,0.0,84,0.00,,,0.00,WeatherCatV1.15B25,2013-04-25 03:45:00,
2013-04-24 23:50:00,71.3,65.9,30.12,ENE,71,0.0,2.0,83,0.00,,,0.00,WeatherCatV1.15B25,2013-04-25 03:50:00,
2013-04-24 23:55:00,71.2,65.8,30.12,ENE,71,0.0,0.0,83,0.00,,,0.00,WeatherCatV1.15B25,2013-04-25 03:55:00,